Year,Month,Day,Hour,Minute,Value (Times are PST for windspeed in km/hr)
2010,11,18,00,00,0.00
2010,11,18,00,01,0.30
2010,11,18,00,02,0.60
2010,11,18,00,03,0.30
2010,11,18,00,04,0.10
2010,11,18,00,05,0.10
2010,11,18,00,06,0.00
2010,11,18,00,07,0.00
2010,11,18,00,08,0.00
2010,11,18,00,09,0.00
2010,11,18,00,10,0.00
2010,11,18,00,11,0.00
2010,11,18,00,12,0.00
2010,11,18,00,13,0.00
2010,11,18,00,14,0.00
2010,11,18,00,15,0.00
2010,11,18,00,16,0.00
2010,11,18,00,17,0.00
2010,11,18,00,18,0.00
2010,11,18,00,19,0.00
2010,11,18,00,20,0.00
2010,11,18,00,21,0.00
2010,11,18,00,22,0.00
2010,11,18,00,23,0.00
2010,11,18,00,24,0.00
2010,11,18,00,25,0.00
2010,11,18,00,26,0.00
2010,11,18,00,27,0.00
2010,11,18,00,28,0.00
2010,11,18,00,29,0.00
2010,11,18,00,30,0.00
2010,11,18,00,31,0.00
2010,11,18,00,32,0.00
2010,11,18,00,33,0.00
2010,11,18,00,34,0.00
2010,11,18,00,35,0.00
2010,11,18,00,36,0.00
2010,11,18,00,37,0.10
2010,11,18,00,38,0.30
2010,11,18,00,39,0.20
2010,11,18,00,40,0.00
2010,11,18,00,41,0.00
2010,11,18,00,42,0.00
2010,11,18,00,43,0.10
2010,11,18,00,44,0.10
2010,11,18,00,45,0.30
2010,11,18,00,46,0.00
2010,11,18,00,47,0.00
2010,11,18,00,48,0.00
2010,11,18,00,49,0.00
2010,11,18,00,50,0.20
2010,11,18,00,51,0.00
2010,11,18,00,52,0.10
2010,11,18,00,53,1.10
2010,11,18,00,54,0.40
2010,11,18,00,55,2.10
2010,11,18,00,56,0.50
2010,11,18,00,57,0.20
2010,11,18,00,58,0.10
2010,11,18,00,59,0.20
2010,11,18,01,00,0.10
2010,11,18,01,01,0.00
2010,11,18,01,02,0.90
2010,11,18,01,03,0.40
2010,11,18,01,04,1.70
2010,11,18,01,05,0.30
2010,11,18,01,06,1.20
2010,11,18,01,07,0.40
2010,11,18,01,08,0.90
2010,11,18,01,09,0.20
2010,11,18,01,10,0.20
2010,11,18,01,11,0.10
2010,11,18,01,12,0.60
2010,11,18,01,13,2.10
2010,11,18,01,14,1.30
2010,11,18,01,15,0.10
2010,11,18,01,16,0.00
2010,11,18,01,17,0.20
2010,11,18,01,18,0.90
2010,11,18,01,19,0.10
2010,11,18,01,20,0.40
2010,11,18,01,21,0.10
2010,11,18,01,22,0.10
2010,11,18,01,23,0.10
2010,11,18,01,24,0.10
2010,11,18,01,25,0.00
2010,11,18,01,26,1.70
2010,11,18,01,27,0.20
2010,11,18,01,28,0.20
2010,11,18,01,29,2.00
2010,11,18,01,30,5.50
2010,11,18,01,31,3.10
2010,11,18,01,32,2.50
2010,11,18,01,33,2.50
2010,11,18,01,34,1.10
2010,11,18,01,35,1.70
2010,11,18,01,36,1.00
2010,11,18,01,37,3.80
2010,11,18,01,38,0.30
2010,11,18,01,39,2.20
2010,11,18,01,40,1.60
2010,11,18,01,41,2.90
2010,11,18,01,42,4.80
2010,11,18,01,43,1.70
2010,11,18,01,44,1.40
2010,11,18,01,45,0.10
2010,11,18,01,46,0.30
2010,11,18,01,47,0.00
2010,11,18,01,48,2.40
2010,11,18,01,49,4.90
2010,11,18,01,50,2.50
2010,11,18,01,51,2.10
2010,11,18,01,52,4.40
2010,11,18,01,53,5.50
2010,11,18,01,54,2.60
2010,11,18,01,55,3.10
2010,11,18,01,56,4.30
2010,11,18,01,57,3.80
2010,11,18,01,58,6.50
2010,11,18,01,59,2.80
2010,11,18,02,00,3.30
2010,11,18,02,01,6.90
2010,11,18,02,02,5.20
2010,11,18,02,03,2.40
2010,11,18,02,04,2.20
2010,11,18,02,05,2.40
2010,11,18,02,06,0.30
2010,11,18,02,07,2.40
2010,11,18,02,08,1.10
2010,11,18,02,09,0.30
2010,11,18,02,10,1.30
2010,11,18,02,11,4.00
2010,11,18,02,12,1.90
2010,11,18,02,13,0.20
2010,11,18,02,14,1.20
2010,11,18,02,15,1.10
2010,11,18,02,16,0.00
2010,11,18,02,17,0.00
2010,11,18,02,18,0.10
2010,11,18,02,19,0.20
2010,11,18,02,20,0.20
2010,11,18,02,21,0.00
2010,11,18,02,22,0.20
2010,11,18,02,23,0.00
2010,11,18,02,24,0.00
2010,11,18,02,25,0.00
2010,11,18,02,26,0.10
2010,11,18,02,27,0.10
2010,11,18,02,28,0.00
2010,11,18,02,29,0.40
2010,11,18,02,30,0.20
2010,11,18,02,31,0.40
2010,11,18,02,32,1.10
2010,11,18,02,33,0.30
2010,11,18,02,34,0.90
2010,11,18,02,35,0.70
2010,11,18,02,36,0.50
2010,11,18,02,37,0.30
2010,11,18,02,38,1.10
2010,11,18,02,39,1.90
2010,11,18,02,40,1.90
2010,11,18,02,41,0.80
2010,11,18,02,42,1.10
2010,11,18,02,43,0.60
2010,11,18,02,44,0.20
2010,11,18,02,45,0.50
2010,11,18,02,46,0.30
2010,11,18,02,47,0.00
2010,11,18,02,48,0.00
2010,11,18,02,49,0.00
2010,11,18,02,50,0.00
2010,11,18,02,51,0.20
2010,11,18,02,52,0.20
2010,11,18,02,53,0.00
2010,11,18,02,54,0.00
2010,11,18,02,55,0.40
2010,11,18,02,56,0.00
2010,11,18,02,57,0.00
2010,11,18,02,58,0.20
2010,11,18,02,59,0.80
2010,11,18,03,00,1.40
2010,11,18,03,01,1.30
2010,11,18,03,02,1.90
2010,11,18,03,03,2.60
2010,11,18,03,04,0.60
2010,11,18,03,05,1.60
2010,11,18,03,06,0.10
2010,11,18,03,07,0.00
2010,11,18,03,08,0.00
2010,11,18,03,09,0.10
2010,11,18,03,10,0.00
2010,11,18,03,11,1.60
2010,11,18,03,12,0.10
2010,11,18,03,13,0.00
2010,11,18,03,14,0.00
2010,11,18,03,15,0.10
2010,11,18,03,16,0.10
2010,11,18,03,17,0.30
2010,11,18,03,18,0.40
2010,11,18,03,19,1.20
2010,11,18,03,20,0.10
2010,11,18,03,21,0.20
2010,11,18,03,22,0.00
2010,11,18,03,23,0.00
2010,11,18,03,24,0.00
2010,11,18,03,25,0.00
2010,11,18,03,26,0.10
2010,11,18,03,27,0.10
2010,11,18,03,28,0.10
2010,11,18,03,29,0.00
2010,11,18,03,30,0.00
2010,11,18,03,31,0.00
2010,11,18,03,32,0.00
2010,11,18,03,33,0.70
2010,11,18,03,34,0.80
2010,11,18,03,35,1.70
2010,11,18,03,36,0.10
2010,11,18,03,37,0.20
2010,11,18,03,38,0.00
2010,11,18,03,39,0.00
2010,11,18,03,40,0.10
2010,11,18,03,41,0.00
2010,11,18,03,42,0.00
2010,11,18,03,43,0.00
2010,11,18,03,44,1.10
2010,11,18,03,45,1.10
2010,11,18,03,46,0.00
2010,11,18,03,47,0.10
2010,11,18,03,48,0.10
2010,11,18,03,49,0.00
2010,11,18,03,50,0.00
2010,11,18,03,51,0.00
2010,11,18,03,52,0.00
2010,11,18,03,53,0.10
2010,11,18,03,54,0.10
2010,11,18,03,55,0.20
2010,11,18,03,56,0.20
2010,11,18,03,57,0.40
2010,11,18,03,58,0.00
2010,11,18,03,59,0.00
2010,11,18,04,00,0.00
2010,11,18,04,01,0.00
2010,11,18,04,02,0.00
2010,11,18,04,03,0.10
2010,11,18,04,04,0.00
2010,11,18,04,06,0.00
2010,11,18,04,08,0.00
2010,11,18,04,09,0.00
2010,11,18,04,10,0.00
2010,11,18,04,11,0.00
2010,11,18,04,12,0.10
2010,11,18,04,13,0.00
2010,11,18,04,14,0.00
2010,11,18,04,15,0.40
2010,11,18,04,16,0.90
2010,11,18,04,17,0.60
2010,11,18,04,18,0.10
2010,11,18,04,19,0.10
2010,11,18,04,20,0.00
2010,11,18,04,21,0.10
2010,11,18,04,22,0.00
2010,11,18,04,23,0.00
2010,11,18,04,24,0.10
2010,11,18,04,25,0.10
2010,11,18,04,26,0.10
2010,11,18,04,27,0.00
2010,11,18,04,28,0.00
2010,11,18,04,29,0.00
2010,11,18,04,30,0.00
2010,11,18,04,31,0.00
2010,11,18,04,32,0.00
2010,11,18,04,33,0.00
2010,11,18,04,34,0.00
2010,11,18,04,35,0.00
2010,11,18,04,36,0.00
2010,11,18,04,37,0.00
2010,11,18,04,38,0.00
2010,11,18,04,39,0.00
2010,11,18,04,40,0.00
2010,11,18,04,41,0.00
2010,11,18,04,42,0.00
2010,11,18,04,43,0.00
2010,11,18,04,44,0.00
2010,11,18,04,45,0.00
2010,11,18,04,46,0.00
2010,11,18,04,47,0.00
2010,11,18,04,48,0.00
2010,11,18,04,49,0.00
2010,11,18,04,50,0.00
2010,11,18,04,51,0.00
2010,11,18,04,52,0.00
2010,11,18,04,53,0.00
2010,11,18,04,54,0.00
2010,11,18,04,55,0.00
2010,11,18,04,56,0.00
2010,11,18,04,57,0.00
2010,11,18,04,58,0.00
2010,11,18,04,59,0.00
2010,11,18,05,00,0.00
2010,11,18,05,01,0.00
2010,11,18,05,02,0.00
2010,11,18,05,03,0.00
2010,11,18,05,04,0.00
2010,11,18,05,05,0.00
2010,11,18,05,06,0.00
2010,11,18,05,07,0.00
2010,11,18,05,08,0.00
2010,11,18,05,09,0.20
2010,11,18,05,10,0.20
2010,11,18,05,11,0.10
2010,11,18,05,12,0.10
2010,11,18,05,13,0.00
2010,11,18,05,14,0.00
2010,11,18,05,15,0.00
2010,11,18,05,16,0.00
2010,11,18,05,17,0.00
2010,11,18,05,18,0.00
2010,11,18,05,19,0.00
2010,11,18,05,20,0.00
2010,11,18,05,21,0.00
2010,11,18,05,22,0.00
2010,11,18,05,23,0.00
2010,11,18,05,24,0.00
2010,11,18,05,25,0.00
2010,11,18,05,26,0.00
2010,11,18,05,27,0.00
2010,11,18,05,28,0.00
2010,11,18,05,29,0.00
2010,11,18,05,30,0.00
2010,11,18,05,31,0.10
2010,11,18,05,32,0.00
2010,11,18,05,33,0.30
2010,11,18,05,34,0.00
2010,11,18,05,35,0.00
2010,11,18,05,36,0.20
2010,11,18,05,37,0.00
2010,11,18,05,38,0.10
2010,11,18,05,39,0.00
2010,11,18,05,40,0.00
2010,11,18,05,41,0.00
2010,11,18,05,42,0.00
2010,11,18,05,43,0.00
2010,11,18,05,44,0.00
2010,11,18,05,45,0.00
2010,11,18,05,46,0.00
2010,11,18,05,47,0.00
2010,11,18,05,48,0.00
2010,11,18,05,49,0.00
2010,11,18,05,50,0.00
2010,11,18,05,51,0.00
2010,11,18,05,52,0.00
2010,11,18,05,53,0.00
2010,11,18,05,54,0.00
2010,11,18,05,55,0.00
2010,11,18,05,56,0.00
2010,11,18,05,57,0.00
2010,11,18,05,58,0.00
2010,11,18,05,59,0.00
2010,11,18,06,00,0.00
2010,11,18,06,01,0.00
2010,11,18,06,02,0.00
2010,11,18,06,03,0.00
2010,11,18,06,04,0.00
2010,11,18,06,05,0.00
2010,11,18,06,06,0.00
2010,11,18,06,07,0.00
2010,11,18,06,08,0.00
2010,11,18,06,09,0.00
2010,11,18,06,10,0.00
2010,11,18,06,11,0.00
2010,11,18,06,12,0.00
2010,11,18,06,13,0.00
2010,11,18,06,14,0.00
2010,11,18,06,15,0.00
2010,11,18,06,16,0.00
2010,11,18,06,17,0.00
2010,11,18,06,18,0.00
2010,11,18,06,19,0.00
2010,11,18,06,20,0.00
2010,11,18,06,21,0.00
2010,11,18,06,22,0.00
2010,11,18,06,23,0.00
2010,11,18,06,24,0.00
2010,11,18,06,25,0.00
2010,11,18,06,26,0.00
2010,11,18,06,27,0.00
2010,11,18,06,28,0.00
2010,11,18,06,29,0.00
2010,11,18,06,30,0.00
2010,11,18,06,31,0.00
2010,11,18,06,32,0.00
2010,11,18,06,33,0.00
2010,11,18,06,34,0.00
2010,11,18,06,35,0.00
2010,11,18,06,36,0.00
2010,11,18,06,37,0.00
2010,11,18,06,38,0.00
2010,11,18,06,39,0.00
2010,11,18,06,40,0.00
2010,11,18,06,41,0.00
2010,11,18,06,42,0.00
2010,11,18,06,43,0.00
2010,11,18,06,44,0.00
2010,11,18,06,45,0.00
2010,11,18,06,46,0.00
2010,11,18,06,47,0.00
2010,11,18,06,48,0.00
2010,11,18,06,49,0.00
2010,11,18,06,50,0.00
2010,11,18,06,51,0.00
2010,11,18,06,52,0.00
2010,11,18,06,53,0.00
2010,11,18,06,54,0.00
2010,11,18,06,55,0.00
2010,11,18,06,56,0.00
2010,11,18,06,57,0.00
2010,11,18,06,58,0.00
2010,11,18,06,59,0.00
2010,11,18,07,00,0.00
2010,11,18,07,01,0.00
2010,11,18,07,02,0.00
2010,11,18,07,03,0.00
2010,11,18,07,04,0.00
2010,11,18,07,05,0.00
2010,11,18,07,06,0.00
2010,11,18,07,07,0.00
2010,11,18,07,08,0.00
2010,11,18,07,09,0.00
2010,11,18,07,10,0.00
2010,11,18,07,11,0.00
2010,11,18,07,12,0.00
2010,11,18,07,13,0.00
2010,11,18,07,14,0.00
2010,11,18,07,15,0.00
2010,11,18,07,16,0.00
2010,11,18,07,17,0.00
2010,11,18,07,18,0.00
2010,11,18,07,19,0.00
2010,11,18,07,20,0.00
2010,11,18,07,21,0.00
2010,11,18,07,22,0.00
2010,11,18,07,23,0.00
2010,11,18,07,24,0.00
2010,11,18,07,25,0.00
2010,11,18,07,26,0.00
2010,11,18,07,27,0.00
2010,11,18,07,28,0.00
2010,11,18,07,29,0.00
2010,11,18,07,30,0.00
2010,11,18,07,31,0.00
2010,11,18,07,32,0.00
2010,11,18,07,33,0.00
2010,11,18,07,34,0.00
2010,11,18,07,35,0.00
2010,11,18,07,36,0.00
2010,11,18,07,37,0.00
2010,11,18,07,38,0.00
2010,11,18,07,39,0.00
2010,11,18,07,40,0.00
2010,11,18,07,41,0.00
2010,11,18,07,42,0.00
2010,11,18,07,43,0.00
2010,11,18,07,44,0.00
2010,11,18,07,45,0.00
2010,11,18,07,46,0.00
2010,11,18,07,47,0.00
2010,11,18,07,48,0.00
2010,11,18,07,49,0.00
2010,11,18,07,50,0.00
2010,11,18,07,51,0.00
2010,11,18,07,52,0.00
2010,11,18,07,53,0.00
2010,11,18,07,54,0.00
2010,11,18,07,55,0.00
2010,11,18,07,56,0.00
2010,11,18,07,57,0.00
2010,11,18,07,58,0.00
2010,11,18,07,59,0.00
2010,11,18,08,00,4.90
2010,11,18,08,01,7.30
2010,11,18,08,02,2.70
2010,11,18,08,03,10.20
2010,11,18,08,04,8.20
2010,11,18,08,05,1.60
2010,11,18,08,06,1.70
2010,11,18,08,07,7.50
2010,11,18,08,08,3.70
2010,11,18,08,09,5.50
2010,11,18,08,10,3.40
2010,11,18,08,11,8.10
2010,11,18,08,12,9.10
2010,11,18,08,13,7.30
2010,11,18,08,14,3.70
2010,11,18,08,15,4.40
2010,11,18,08,16,8.50
2010,11,18,08,17,3.30
2010,11,18,08,18,2.70
2010,11,18,08,19,2.50
2010,11,18,08,20,5.30
2010,11,18,08,21,7.50
2010,11,18,08,22,9.10
2010,11,18,08,23,9.40
2010,11,18,08,24,5.00
2010,11,18,08,25,6.50
2010,11,18,08,26,5.20
2010,11,18,08,27,3.10
2010,11,18,08,28,3.00
2010,11,18,08,29,8.80
2010,11,18,08,30,9.10
2010,11,18,08,31,7.20
2010,11,18,08,32,6.00
2010,11,18,08,33,4.70
2010,11,18,08,34,6.00
2010,11,18,08,35,6.70
2010,11,18,08,36,3.30
2010,11,18,08,37,2.80
2010,11,18,08,38,5.10
2010,11,18,08,39,3.00
2010,11,18,08,40,1.40
2010,11,18,08,41,4.20
2010,11,18,08,42,7.50
2010,11,18,08,43,2.30
2010,11,18,08,44,5.80
2010,11,18,08,45,8.30
2010,11,18,08,46,9.40
2010,11,18,08,47,7.80
2010,11,18,08,48,3.50
2010,11,18,08,49,6.30
2010,11,18,08,50,6.90
2010,11,18,08,51,6.10
2010,11,18,08,52,5.60
2010,11,18,08,53,4.10
2010,11,18,08,54,7.90
2010,11,18,08,55,3.00
2010,11,18,08,56,1.90
2010,11,18,08,57,6.20
2010,11,18,08,58,6.30
2010,11,18,08,59,4.40
2010,11,18,09,00,5.90
2010,11,18,09,01,1.50
2010,11,18,09,02,8.00
2010,11,18,09,03,7.10
2010,11,18,09,04,7.40
2010,11,18,09,05,2.50
2010,11,18,09,06,6.30
2010,11,18,09,07,1.90
2010,11,18,09,08,3.00
2010,11,18,09,09,9.10
2010,11,18,09,10,8.30
2010,11,18,09,11,3.50
2010,11,18,09,12,5.80
2010,11,18,09,13,4.30
2010,11,18,09,14,7.00
2010,11,18,09,15,4.20
2010,11,18,09,16,4.20
2010,11,18,09,17,7.40
2010,11,18,09,18,3.80
2010,11,18,09,19,7.60
2010,11,18,09,20,6.50
2010,11,18,09,21,5.20
2010,11,18,09,22,8.20
2010,11,18,09,23,5.60
2010,11,18,09,24,13.00
2010,11,18,09,25,4.90
2010,11,18,09,26,5.00
2010,11,18,09,27,5.70
2010,11,18,09,28,3.10
2010,11,18,09,29,7.20
2010,11,18,09,30,5.60
2010,11,18,09,31,4.90
2010,11,18,09,32,1.70
2010,11,18,09,33,5.00
2010,11,18,09,34,5.50
2010,11,18,09,35,6.00
2010,11,18,09,36,7.50
2010,11,18,09,37,10.60
2010,11,18,09,38,10.30
2010,11,18,09,39,10.70
2010,11,18,09,40,9.90
2010,11,18,09,41,6.50
2010,11,18,09,42,8.00
2010,11,18,09,43,5.50
2010,11,18,09,44,2.70
2010,11,18,09,45,6.80
2010,11,18,09,46,6.50
2010,11,18,09,47,5.20
2010,11,18,09,48,4.20
2010,11,18,09,49,7.60
2010,11,18,09,50,6.30
2010,11,18,09,51,6.00
2010,11,18,09,52,3.00
2010,11,18,09,53,4.70
2010,11,18,09,54,5.30
2010,11,18,09,55,8.20
2010,11,18,09,56,8.40
2010,11,18,09,57,3.70
2010,11,18,09,58,12.40
2010,11,18,09,59,4.90
2010,11,18,10,00,6.00
2010,11,18,10,01,6.10
2010,11,18,10,02,5.00
2010,11,18,10,03,7.50
2010,11,18,10,04,6.90
2010,11,18,10,05,7.10
2010,11,18,10,06,3.40
2010,11,18,10,07,1.90
2010,11,18,10,08,7.30
2010,11,18,10,09,8.40
2010,11,18,10,10,8.20
2010,11,18,10,11,9.70
2010,11,18,10,12,7.90
2010,11,18,10,13,7.40
2010,11,18,10,14,3.80
2010,11,18,10,15,2.50
2010,11,18,10,16,1.80
2010,11,18,10,17,3.30
2010,11,18,10,18,5.50
2010,11,18,10,19,6.00
2010,11,18,10,20,3.40
2010,11,18,10,21,2.40
2010,11,18,10,22,6.10
2010,11,18,10,23,6.70
2010,11,18,10,24,4.20
2010,11,18,10,25,3.80
2010,11,18,10,26,5.70
2010,11,18,10,27,6.60
2010,11,18,10,28,8.10
2010,11,18,10,29,3.90
2010,11,18,10,30,3.90
2010,11,18,10,31,1.90
2010,11,18,10,32,1.90
2010,11,18,10,33,0.80
2010,11,18,10,34,0.00
2010,11,18,10,35,1.20
2010,11,18,10,36,6.90
2010,11,18,10,37,2.60
2010,11,18,10,38,1.50
2010,11,18,10,39,1.90
2010,11,18,10,40,3.80
2010,11,18,10,41,0.50
2010,11,18,10,42,3.60
2010,11,18,10,43,4.70
2010,11,18,10,44,4.70
2010,11,18,10,45,2.10
2010,11,18,10,46,2.40
2010,11,18,10,47,5.50
2010,11,18,10,48,2.20
2010,11,18,10,49,5.60
2010,11,18,10,50,3.10
2010,11,18,10,51,2.70
2010,11,18,10,52,2.30
2010,11,18,10,53,5.80
2010,11,18,10,54,5.60
2010,11,18,10,55,5.40
2010,11,18,10,56,2.70
2010,11,18,10,57,1.60
2010,11,18,10,58,0.70
2010,11,18,10,59,5.20
2010,11,18,11,00,3.70
2010,11,18,11,01,0.80
2010,11,18,11,02,0.90
2010,11,18,11,03,0.10
2010,11,18,11,04,0.20
2010,11,18,11,05,3.80
2010,11,18,11,06,1.90
2010,11,18,11,07,2.40
2010,11,18,11,08,0.80
2010,11,18,11,09,0.60
2010,11,18,11,10,0.90
2010,11,18,11,11,0.30
2010,11,18,11,12,0.10
2010,11,18,11,13,1.30
2010,11,18,11,14,0.30
2010,11,18,11,15,0.30
2010,11,18,11,16,3.10
2010,11,18,11,17,5.00
2010,11,18,11,18,5.90
2010,11,18,11,19,1.10
2010,11,18,11,20,0.80
2010,11,18,11,21,3.10
2010,11,18,11,22,5.30
2010,11,18,11,23,2.20
2010,11,18,11,24,3.70
2010,11,18,11,25,3.90
2010,11,18,11,26,7.20
2010,11,18,11,27,7.70
2010,11,18,11,28,8.90
2010,11,18,11,29,6.10
2010,11,18,11,30,5.30
2010,11,18,11,31,3.80
2010,11,18,11,32,8.80
2010,11,18,11,33,5.80
2010,11,18,11,34,2.70
2010,11,18,11,35,6.70
2010,11,18,11,36,5.60
2010,11,18,11,37,7.70
2010,11,18,11,38,5.30
2010,11,18,11,39,4.80
2010,11,18,11,40,4.70
2010,11,18,11,41,2.00
2010,11,18,11,42,0.30
2010,11,18,11,43,6.10
2010,11,18,11,44,7.30
2010,11,18,11,45,5.90
2010,11,18,11,46,2.80
2010,11,18,11,47,0.50
2010,11,18,11,48,0.70
2010,11,18,11,49,0.20
2010,11,18,11,50,2.50
2010,11,18,11,51,2.90
2010,11,18,11,52,2.80
2010,11,18,11,53,0.50
2010,11,18,11,54,1.00
2010,11,18,11,55,0.50
2010,11,18,11,56,0.10
2010,11,18,11,57,0.50
2010,11,18,11,58,4.50
2010,11,18,11,59,2.20
2010,11,18,12,00,1.10
2010,11,18,12,01,2.60
2010,11,18,12,02,0.40
2010,11,18,12,03,0.00
2010,11,18,12,04,1.10
2010,11,18,12,05,3.00
2010,11,18,12,06,2.80
2010,11,18,12,07,4.00
2010,11,18,12,08,3.50
2010,11,18,12,09,5.30
2010,11,18,12,10,3.60
2010,11,18,12,11,1.90
2010,11,18,12,12,4.20
2010,11,18,12,13,5.20
2010,11,18,12,14,1.10
2010,11,18,12,15,1.60
2010,11,18,12,16,1.30
2010,11,18,12,17,0.80
2010,11,18,12,18,1.40
2010,11,18,12,19,2.60
2010,11,18,12,20,2.00
2010,11,18,12,21,1.70
2010,11,18,12,22,2.90
2010,11,18,12,23,2.70
2010,11,18,12,24,0.40
2010,11,18,12,25,0.00
2010,11,18,12,26,0.00
2010,11,18,12,27,0.00
2010,11,18,12,28,1.40
2010,11,18,12,29,0.50
2010,11,18,12,30,1.20
2010,11,18,12,31,4.70
2010,11,18,12,32,6.60
2010,11,18,12,33,3.30
2010,11,18,12,34,1.90
2010,11,18,12,35,0.20
2010,11,18,12,36,1.40
2010,11,18,12,37,0.70
2010,11,18,12,38,0.90
2010,11,18,12,39,1.30
2010,11,18,12,40,1.20
2010,11,18,12,41,0.80
2010,11,18,12,42,0.10
2010,11,18,12,43,0.00
2010,11,18,12,44,1.70
2010,11,18,12,45,1.30
2010,11,18,12,46,2.60
2010,11,18,12,47,4.90
2010,11,18,12,48,2.80
2010,11,18,12,49,1.30
2010,11,18,12,50,2.40
2010,11,18,12,51,7.40
2010,11,18,12,52,4.50
2010,11,18,12,53,0.70
2010,11,18,12,54,0.70
2010,11,18,12,55,0.30
2010,11,18,12,56,3.30
2010,11,18,12,57,1.70
2010,11,18,12,58,3.70
2010,11,18,12,59,6.60
2010,11,18,13,00,6.90
2010,11,18,13,01,6.40
2010,11,18,13,02,4.20
2010,11,18,13,03,4.50
2010,11,18,13,04,1.20
2010,11,18,13,05,2.00
2010,11,18,13,06,4.70
2010,11,18,13,07,8.10
2010,11,18,13,08,6.90
2010,11,18,13,09,6.40
2010,11,18,13,10,4.70
2010,11,18,13,11,4.10
2010,11,18,13,12,5.40
2010,11,18,13,13,7.70
2010,11,18,13,14,7.50
2010,11,18,13,15,3.70
2010,11,18,13,16,3.60
2010,11,18,13,17,5.60
2010,11,18,13,18,1.60
2010,11,18,13,19,8.40
2010,11,18,13,20,5.30
2010,11,18,13,21,3.60
2010,11,18,13,22,5.70
2010,11,18,13,23,3.00
2010,11,18,13,24,3.30
2010,11,18,13,25,4.50
2010,11,18,13,26,4.50
2010,11,18,13,27,7.00
2010,11,18,13,28,3.10
2010,11,18,13,29,1.00
2010,11,18,13,30,2.90
2010,11,18,13,31,2.20
2010,11,18,13,32,3.80
2010,11,18,13,33,2.60
2010,11,18,13,34,2.30
2010,11,18,13,35,4.00
2010,11,18,13,36,2.20
2010,11,18,13,37,2.80
2010,11,18,13,38,0.50
2010,11,18,13,39,4.70
2010,11,18,13,40,1.90
2010,11,18,13,41,1.20
2010,11,18,13,42,1.30
2010,11,18,13,43,1.40
2010,11,18,13,44,0.10
2010,11,18,13,45,0.50
2010,11,18,13,46,1.70
2010,11,18,13,47,0.70
2010,11,18,13,48,1.20
2010,11,18,13,49,0.30
2010,11,18,13,50,0.10
2010,11,18,13,51,1.80
2010,11,18,13,52,3.70
2010,11,18,13,53,3.60
2010,11,18,13,54,2.00
2010,11,18,13,55,0.70
2010,11,18,13,56,1.70
2010,11,18,13,57,1.20
2010,11,18,13,58,1.50
2010,11,18,13,59,0.60
2010,11,18,14,00,5.50
2010,11,18,14,01,3.00
2010,11,18,14,02,0.30
2010,11,18,14,03,1.10
2010,11,18,14,04,3.00
2010,11,18,14,05,2.00
2010,11,18,14,06,0.60
2010,11,18,14,07,0.50
2010,11,18,14,08,0.40
2010,11,18,14,09,1.90
2010,11,18,14,10,0.30
2010,11,18,14,11,3.70
2010,11,18,14,12,1.50
2010,11,18,14,13,5.40
2010,11,18,14,14,5.30
2010,11,18,14,15,6.40
2010,11,18,14,16,8.30
2010,11,18,14,17,8.00
2010,11,18,14,18,7.20
2010,11,18,14,19,4.30
2010,11,18,14,20,4.90
2010,11,18,14,21,3.60
2010,11,18,14,22,0.80
2010,11,18,14,23,1.30
2010,11,18,14,24,1.30
2010,11,18,14,25,6.60
2010,11,18,14,26,6.20
2010,11,18,14,27,4.30
2010,11,18,14,28,5.50
2010,11,18,14,29,4.10
2010,11,18,14,30,1.70
2010,11,18,14,31,6.50
2010,11,18,14,32,6.60
2010,11,18,14,33,4.20
2010,11,18,14,34,4.70
2010,11,18,14,35,4.70
2010,11,18,14,36,3.60
2010,11,18,14,37,4.30
2010,11,18,14,38,3.40
2010,11,18,14,39,1.90
2010,11,18,14,40,1.90
2010,11,18,14,41,1.30
2010,11,18,14,42,4.10
2010,11,18,14,43,2.20
2010,11,18,14,44,6.30
2010,11,18,14,45,4.50
2010,11,18,14,46,5.20
2010,11,18,14,47,1.60
2010,11,18,14,48,6.10
2010,11,18,14,49,2.00
2010,11,18,14,50,2.40
2010,11,18,14,51,3.80
2010,11,18,14,52,4.10
2010,11,18,14,53,4.70
2010,11,18,14,54,2.60
2010,11,18,14,55,0.40
2010,11,18,14,56,0.20
2010,11,18,14,57,1.00
2010,11,18,14,58,0.20
2010,11,18,14,59,1.50
2010,11,18,15,00,2.60
2010,11,18,15,01,2.50
2010,11,18,15,02,2.00
2010,11,18,15,03,0.90
2010,11,18,15,04,1.50
2010,11,18,15,05,1.70
2010,11,18,15,06,3.10
2010,11,18,15,07,4.20
2010,11,18,15,08,0.10
2010,11,18,15,09,0.60
2010,11,18,15,10,4.20
2010,11,18,15,11,4.20
2010,11,18,15,12,1.60
2010,11,18,15,13,3.10
2010,11,18,15,14,3.00
2010,11,18,15,15,5.30
2010,11,18,15,16,1.70
2010,11,18,15,17,0.20
2010,11,18,15,18,0.70
2010,11,18,15,19,0.90
2010,11,18,15,20,2.80
2010,11,18,15,21,0.60
2010,11,18,15,22,0.20
2010,11,18,15,23,0.90
2010,11,18,15,24,2.10
2010,11,18,15,25,4.90
2010,11,18,15,26,6.80
2010,11,18,15,27,0.60
2010,11,18,15,28,3.00
2010,11,18,15,29,5.30
2010,11,18,15,30,3.40
2010,11,18,15,31,3.90
2010,11,18,15,32,2.30
2010,11,18,15,33,0.90
2010,11,18,15,34,0.60
2010,11,18,15,35,2.00
2010,11,18,15,36,1.00
2010,11,18,15,37,0.10
2010,11,18,15,38,0.10
2010,11,18,15,39,0.50
2010,11,18,15,40,0.40
2010,11,18,15,41,1.60
2010,11,18,15,42,1.40
2010,11,18,15,43,1.40
2010,11,18,15,44,0.60
2010,11,18,15,45,0.60
2010,11,18,15,46,1.60
2010,11,18,15,47,0.90
2010,11,18,15,48,2.90
2010,11,18,15,49,1.40
2010,11,18,15,50,1.00
2010,11,18,15,51,1.20
2010,11,18,15,52,0.10
2010,11,18,15,53,1.20
2010,11,18,15,54,1.70
2010,11,18,15,55,0.60
2010,11,18,15,56,1.00
2010,11,18,15,57,1.00
2010,11,18,15,58,1.40
2010,11,18,15,59,0.60
2010,11,18,16,00,2.20
2010,11,18,16,01,3.50
2010,11,18,16,02,0.70
2010,11,18,16,03,0.90
2010,11,18,16,04,0.60
2010,11,18,16,05,3.30
2010,11,18,16,06,1.10
2010,11,18,16,07,2.40
2010,11,18,16,08,1.70
2010,11,18,16,09,1.50
2010,11,18,16,10,1.50
2010,11,18,16,11,0.10
2010,11,18,16,12,0.20
2010,11,18,16,13,0.20
2010,11,18,16,14,0.80
2010,11,18,16,15,0.90
2010,11,18,16,16,0.40
2010,11,18,16,17,1.70
2010,11,18,16,18,0.40
2010,11,18,16,19,0.50
2010,11,18,16,20,0.10
2010,11,18,16,21,0.20
2010,11,18,16,22,0.00
2010,11,18,16,23,1.50
2010,11,18,16,24,0.30
2010,11,18,16,25,0.00
2010,11,18,16,26,0.30
2010,11,18,16,27,1.00
2010,11,18,16,28,0.60
2010,11,18,16,29,0.40
2010,11,18,16,30,0.30
2010,11,18,16,31,0.10
2010,11,18,16,32,0.30
2010,11,18,16,33,0.10
2010,11,18,16,34,0.60
2010,11,18,16,35,1.60
2010,11,18,16,36,1.40
2010,11,18,16,37,1.40
2010,11,18,16,38,0.60
2010,11,18,16,39,1.40
2010,11,18,16,40,0.20
2010,11,18,16,41,1.00
2010,11,18,16,42,2.90
2010,11,18,16,43,1.10
2010,11,18,16,44,0.50
2010,11,18,16,45,0.30
2010,11,18,16,46,0.00
2010,11,18,16,47,0.10
2010,11,18,16,48,2.20
2010,11,18,16,49,0.10
2010,11,18,16,50,1.30
2010,11,18,16,51,0.90
2010,11,18,16,52,0.90
2010,11,18,16,53,2.40
2010,11,18,16,54,0.60
2010,11,18,16,55,0.30
2010,11,18,16,56,0.30
2010,11,18,16,57,1.70
2010,11,18,16,58,0.10
2010,11,18,16,59,0.00
2010,11,18,17,00,0.00
2010,11,18,17,01,0.20
2010,11,18,17,02,0.40
2010,11,18,17,03,1.00
2010,11,18,17,04,1.90
2010,11,18,17,05,2.00
2010,11,18,17,06,1.00
2010,11,18,17,07,0.40
2010,11,18,17,08,0.60
2010,11,18,17,09,1.40
2010,11,18,17,10,1.90
2010,11,18,17,11,0.40
2010,11,18,17,12,1.90
2010,11,18,17,13,0.10
2010,11,18,17,14,0.50
2010,11,18,17,15,1.80
2010,11,18,17,16,0.60
2010,11,18,17,17,0.20
2010,11,18,17,18,0.00
2010,11,18,17,19,1.30
2010,11,18,17,20,0.40
2010,11,18,17,21,1.20
2010,11,18,17,22,2.80
2010,11,18,17,23,2.00
2010,11,18,17,24,0.00
2010,11,18,17,25,0.80
2010,11,18,17,26,0.20
2010,11,18,17,27,0.50
2010,11,18,17,28,0.60
2010,11,18,17,29,0.20
2010,11,18,17,30,0.10
2010,11,18,17,31,0.20
2010,11,18,17,32,0.50
2010,11,18,17,33,0.20
2010,11,18,17,34,0.00
2010,11,18,17,35,0.20
2010,11,18,17,36,5.10
2010,11,18,17,37,0.60
2010,11,18,17,38,0.90
2010,11,18,17,39,2.00
2010,11,18,17,40,2.00
2010,11,18,17,41,1.40
2010,11,18,17,42,2.20
2010,11,18,17,43,5.00
2010,11,18,17,44,2.00
2010,11,18,17,45,3.70
2010,11,18,17,46,0.60
2010,11,18,17,47,0.50
2010,11,18,17,48,3.90
2010,11,18,17,49,3.90
2010,11,18,17,50,3.70
2010,11,18,17,51,2.50
2010,11,18,17,52,5.30
2010,11,18,17,53,0.70
2010,11,18,17,54,2.00
2010,11,18,17,55,6.00
2010,11,18,17,56,3.50
2010,11,18,17,57,4.80
2010,11,18,17,58,3.00
2010,11,18,17,59,0.70
2010,11,18,18,00,0.50
2010,11,18,18,01,0.10
2010,11,18,18,02,0.00
2010,11,18,18,03,0.00
2010,11,18,18,04,1.30
2010,11,18,18,05,2.70
2010,11,18,18,06,2.50
2010,11,18,18,07,2.40
2010,11,18,18,08,0.50